Hamilton Island, Australia

10:40 PM AEST on January 19, 2018 (GMT +1000)
Hamilton Island

Weather History for YBHM - May, 2012

Change the Weather History Date:

Wednesday, May 16, 2012

  Actual Average Record
Temperature  
Mean Temperature 68 °F -  
Max Temperature 71 °F - - ()
Min Temperature 66 °F - - ()
Cooling Degree Days 4    
Growing Degree Days 18 (Base 50)    
Moisture  
Dew Point 59 °F    
Average Humidity 68    
Maximum Humidity 83    
Minimum Humidity 42    
Precipitation  
Precipitation 0.12 in - - ()
Sea Level Pressure  
Sea Level Pressure 30.02 in    
Wind  
Wind Speed 21 mph ()    
Max Wind Speed 31 mph    
Max Gust Speed -    
T = Trace of Precipitation, MM = Missing Value Source: Averaged Metar Reports

Daily Weather History Graph

Daily Weather History Graph

Search for Another Location

Airport or City:

Trip Planner

Search our weather history database for the weather conditions in past years. The results will help you decide how hot, cold, wet, or windy it might be!

Date:

Astronomy

May. 16, 2012 Rise Set
Actual Time 6:26 AM AEST 5:34 PM AEST
Civil Twilight 6:02 AM AEST 5:57 PM AEST
Nautical Twilight 5:36 AM AEST 6:24 PM AEST
Astronomical Twilight 5:09 AM AEST 6:51 PM AEST
Moon 2:16 AM AEST (5/16) 2:22 PM AEST (5/16)
Length of Visible Light 11h 55m
Length of Day
11h 08m
Waning Crescent, 20% of the Moon is Illuminated
May 16
Waning Crescent
May 21
New
May 29
First Quarter
Jun 4
Full
Jun 11
Last Quarter

Hourly Weather History & Observations

Time (AEST) Temp. Dew Point Humidity Pressure Visibility Wind Dir Wind Speed Gust Speed Precip Events Conditions
12:00 AM 69 °F 51 °F 42% 30.05 in - SE 18.4 mph - -  
12:00 AM 69.8 °F 51.8 °F 53% 30.04 in - SE 18.4 mph - N/A   Unknown
12:30 AM 69.8 °F 55.4 °F 60% 30.04 in - SSE 17.3 mph - N/A   Unknown
1:00 AM 69.8 °F 57.2 °F 64% 30.04 in - SSE 17.3 mph - N/A   Unknown
1:30 AM 69.8 °F 57.2 °F 64% 30.01 in - SSE 17.3 mph - N/A   Unknown
2:00 AM 68.0 °F 59.0 °F 73% 30.01 in - SSE 16.1 mph - N/A   Unknown
2:30 AM 68.0 °F 57.2 °F 68% 30.01 in - SSE 18.4 mph - N/A   Unknown
3:00 AM 68 °F 53 °F 49% 30.01 in - SSE 17.3 mph - -  
3:00 AM 68.0 °F 53.6 °F 60% 30.01 in - SSE 17.3 mph - N/A   Unknown
3:30 AM 68.0 °F 57.2 °F 68% 30.01 in - SSE 17.3 mph - N/A   Unknown
4:00 AM 68.0 °F 53.6 °F 60% 30.01 in - SSE 18.4 mph - N/A   Unknown
4:30 AM 68.0 °F 50.0 °F 52% 30.01 in - South 17.3 mph - N/A   Unknown
5:00 AM 68.0 °F 51.8 °F 56% 30.01 in - South 19.6 mph - N/A   Unknown
5:30 AM 68.0 °F 51.8 °F 56% 30.01 in - South 20.7 mph - N/A   Unknown
6:00 AM 67 °F 54 °F 53% 30.01 in - South 19.6 mph - -  
6:00 AM 68.0 °F 53.6 °F 60% 30.01 in - South 19.6 mph - N/A   Unknown
6:30 AM 68.0 °F 55.4 °F 64% 30.01 in - SSE 21.9 mph - N/A   Unknown
7:00 AM 68.0 °F 55.4 °F 64% 30.01 in - SSE 24.2 mph - N/A   Unknown
7:30 AM 69.8 °F 57.2 °F 64% 30.04 in - SSE 24.2 mph - N/A   Unknown
8:00 AM 69.8 °F 57.2 °F 64% 30.04 in - SSE 26.5 mph - N/A   Unknown
8:30 AM 69.8 °F 53.6 °F 56% 30.04 in - SSE 25.3 mph - N/A   Unknown
9:00 AM 70 °F 55 °F 49% 30.06 in - SSE 25.3 mph - -  
9:00 AM 69.8 °F 55.4 °F 60% 30.04 in - SSE 25.3 mph - N/A   Unknown
9:30 AM 69.8 °F 59.0 °F 68% 30.06 in - SSE 23.0 mph - N/A   Unknown
10:00 AM 69.8 °F 60.8 °F 73% 30.06 in - SSE 24.2 mph - N/A   Unknown
10:30 AM 69.8 °F 60.8 °F 73% 30.04 in - SSE 25.3 mph - N/A   Unknown
11:00 AM 69.8 °F 62.6 °F 78% 30.04 in - SSE 27.6 mph - N/A   Unknown
11:30 AM 69.8 °F 62.6 °F 78% 30.04 in - SSE 27.6 mph - N/A   Unknown
12:00 PM 70 °F 61 °F 66% 30.02 in - SSE 27.6 mph - -  
12:00 PM 69.8 °F 60.8 °F 73% 30.01 in - SSE 27.6 mph - N/A   Unknown
12:30 PM 66.2 °F 60.8 °F 83% 30.01 in - SSE 26.5 mph - N/A   Unknown
1:00 PM 68.0 °F 59.0 °F 73% 30.01 in - SSE 26.5 mph - N/A   Unknown
1:30 PM 68.0 °F 59.0 °F 73% 29.98 in - South 26.5 mph - N/A   Unknown
2:00 PM 68.0 °F 59.0 °F 73% 29.98 in - SSE 28.8 mph - N/A   Unknown
2:30 PM 69.8 °F 62.6 °F 78% 29.98 in - SSE 26.5 mph - N/A   Unknown
3:00 PM 69 °F 61 °F 70% 29.98 in - SSE 29.9 mph - -  
3:00 PM 69.8 °F 60.8 °F 73% 29.98 in - SSE 29.9 mph - N/A   Unknown
3:30 PM 69.8 °F 62.6 °F 78% 29.98 in - SSE 29.9 mph - N/A   Unknown
4:00 PM 71.6 °F 62.6 °F 73% 29.98 in - SSE 31.1 mph - N/A   Unknown
4:30 PM 71.6 °F 62.6 °F 73% 29.98 in - SSE 31.1 mph - N/A   Unknown
5:00 PM 71.6 °F 62.6 °F 73% 29.98 in - SE 28.8 mph - N/A   Unknown
5:30 PM 71.6 °F 60.8 °F 69% 30.01 in - SE 28.8 mph - N/A   Unknown
6:00 PM 71 °F 61 °F 62% 30.01 in - SSE 24.2 mph - -  
6:00 PM 71.6 °F 60.8 °F 69% 30.01 in - SSE 24.2 mph - N/A   Unknown
6:30 PM 69.8 °F 64.4 °F 83% 30.01 in - SE 18.4 mph - N/A   Unknown
7:00 PM 71.6 °F 64.4 °F 78% 30.01 in - SE 24.2 mph - N/A   Unknown
7:30 PM 69.8 °F 62.6 °F 78% 30.04 in - SE 27.6 mph - N/A   Unknown
8:00 PM 69.8 °F 62.6 °F 78% 30.04 in - SE 28.8 mph - N/A   Unknown
8:30 PM 69.8 °F 62.6 °F 78% 30.04 in - SE 24.2 mph - N/A   Unknown
9:00 PM 71 °F 64 °F 73% 30.04 in - SE 26.5 mph - -  
9:00 PM 71.6 °F 64.4 °F 78% 30.04 in - SE 26.5 mph - N/A   Unknown
9:30 PM 71.6 °F 64.4 °F 78% 30.04 in - SE 29.9 mph - N/A   Unknown
10:00 PM 71.6 °F 60.8 °F 69% 30.04 in - SE 25.3 mph - N/A   Unknown
10:30 PM 71.6 °F 64.4 °F 78% 30.04 in - SE 28.8 mph - N/A   Unknown
11:00 PM 71.6 °F 62.6 °F 73% 30.04 in - SE 29.9 mph - N/A   Unknown
11:30 PM 71.6 °F 60.8 °F 69% 30.01 in - SE 29.9 mph - N/A   Unknown